Hourly Data Report for February 02, 2021

KUGAARUK CLIMATE
NUNAVUT
Current Station Operator: ECCC - MSC

68°32'15.060" N
89°47'47.020" W
15.80 m
2303094
71407
NBB

Download Data

Hourly Data (February 2021)
Hourly Data Report for February 2, 2021
TIME
LST
Temp Definition
°C
Dew Point Definition
°C
Rel Hum Definition
%
Precip. Amount Definition
mm

Wind Dir Definition
10's deg

Wind Spd Definition
km/h
Visibility Definition
km
Stn Press Definition
kPa
Hmdx Definition


Wind Chill Definition


Weather Definition


00:00 -32.4 -35.9 71 0.0 25 16   102.78   -45 LegendNANA
01:00 -32.2 -35.7 71 0.0 25 21   102.76   -46 LegendNANA
02:00 -32.3 -35.8 71 0.0 24 21   102.76   -46 LegendNANA
03:00 -32.3 -35.8 71 0.0 23 18   102.76   -45 LegendNANA
04:00 -32.1 -35.6 71 0.0 23 17   102.74   -45 LegendNANA
05:00 -31.7 -35.1 72 0.0 23 16   102.72   -44 LegendNANA
06:00 -31.8 -35.3 71 0.0 24 14   102.72   -43 LegendNANA
07:00 -32.0 -35.4 72 0.0 24 17   102.68   -45 LegendNANA
08:00 -32.5 -35.9 71 0.0 24 15   102.67   -44 LegendNANA
09:00 -33.5 -37.1 70 0.0 25 13   102.69   -45 LegendNANA
10:00 -33.4 -37.1 69 0.0 23 17   102.67   -46 LegendNANA
11:00 -33.3 -37.1 69 0.0 23 18   102.67   -47 LegendNANA
12:00 -33.6 -37.5 68 0.0 24 22   102.66   -48 LegendNANA
13:00 -33.9 -37.7 69 0.0 23 19   102.70   -48 LegendNANA
14:00 -34.0 -37.7 69 0.0 23 20   102.71   -48 LegendNANA
15:00 -34.5 -38.2 69 0.0 24 22   102.73   -49 LegendNANA
16:00 -34.5 -37.9 71 0.0 27 12   102.73   -46 LegendNANA
17:00 -34.6 -38.2 69 0.0 23 20   102.75   -49 LegendNANA
18:00 -35.1 -38.7 69 0.0 24 23   102.71   -50 LegendNANA
19:00 -35.0 -38.7 69 0.0 23 24   102.71   -51 LegendNANA
20:00 -34.9 -38.6 69 0.0 23 21   102.69   -50 LegendNANA
21:00 -34.8 -38.5 69 0.0 22 27   102.67   -51 LegendNANA
22:00 -34.6 -38.4 69 0.0 22 21   102.69   -49 LegendNANA
23:00 -35.3 -39.0 69 0.0 24 23   102.71   -51 LegendNANA

Notes on Data Quality.

Legend

  • E = Estimated
  • M = Missing
  • NA = Not Available*
  • [empty] = Indicates an unobserved value
Date modified: